"Pseudo-MPEC" for P113qgU

Created 2020 Aug 15 9:07:37 UT using Find_Orb

Click here for an explanation of pseudo-MPECs

 
 Astrometry: 
     P113qgU  C2020 07 317klUJu:=+9^_DW*:JyL.E?P'Ic6Wg#3M'.gAstrometryxm\R%m7F51
     P113qgU  C2020 07 31s=6E\yD!)Kredacted;$laclick+here$(I';vbJc`=CBJH6aASQF51
     P113qgU  C2020 07 31@i*dE35IQ.*YWeO-MyJ3pn/tE58SAXvKCu_2ye=-IQehLoYw\OkkF51
     P113qgU  C2020 08 01$ak9SxZ2N,/JkuI0mV3Du!Jp]y,fDwj_B*9@d%oJhs;cv%V,8T(mF51
     P113qgU  C2020 08 01X^=;]I([!rfor@CV3AlgEZ`aexplanationx6@.BYc$AbD7EG?ZHF51
     P113qgU  C2020 08 01kUFHBdC5Qhok)m'JVI]?(c:ja+j/JJ1p%WHA;7L),qgTR70VN)^kF51
     P113qgU  C2020 08 01wNS)-CM#H+uJ6a-tH$aVWRfgZIKKFy$Ort];H:=-6B3]@+E;aVG'F51

Station data:
(F51) Pan-STARRS 1, Haleakala  (N20.707235 W156.255910)  US/Hawaii.
   Observers N. Primak, A. Schultz, S. Watters, J. Thiel, T. Goggia. Measurer
   PS1 Science Consortium. 1.8-m Ritchey-Chrétien + CCD.

Orbital elements:  P113qgU
   Perihelion 2020 Sep 19.011032 +/- 82.3 TT =  0:15:53 (JD 2459111.511032)
Epoch 2020 Aug  1.0 TT = JDT 2459062.5   Earth MOID: 0.5064   Ma: 0.0409
M 346.97346124 +/- 80               (J2000 ecliptic)          AutoNEOCP
n   0.26578789 +/- 0.446            Peri.  326.10098 +/- 120
a   2.39577441 +/- 2.68             Node    73.30450 +/- 23
e   0.3775581 +/- 0.26              Incl.    7.38953 +/- 6
P   3.71                   H 18.4   G  0.15   U 12.2  SR
q 1.49123016 +/- 0.493    Q 3.30031866 +/- 12.9
From 7 observations 2020 July 31-Aug. 1 (24.2 hr); mean residual 0".05
Residuals in arcseconds: 
200731 F51  .04-  .01+    200801 F51  .02-  .05+    200801 F51  .01-  .07+    
200731 F51  .00   .00     200801 F51  .09-  .03-    
200731 F51  .04+  .01-    200801 F51  .12+  .08-    

Ephemerides (geocentric):
Date (UTC) HH   RA              Dec         delta   r     elong  mag " sig PA
---- -- -- --  -------------   -----------  ------ ------ -----  --- ---- ---
2020 08 15 09  03 56 00.159   +12 52 14.55  1.2611 1.5208  83.2 21.4 4248 167
2020 08 15 10  03 56 06.940   +12 52 38.35  1.2608 1.5207  83.2 21.4 4277 167
2020 08 15 11  03 56 13.720   +12 53 02.14  1.2605 1.5207  83.2 21.4 4306 167
2020 08 15 12  03 56 20.500   +12 53 25.91  1.2602 1.5206  83.2 21.4 4335 167
2020 08 15 13  03 56 27.280   +12 53 49.68  1.2598 1.5205  83.2 21.4 4364 167
2020 08 15 14  03 56 34.060   +12 54 13.43  1.2595 1.5205  83.2 21.4 4393 167
2020 08 15 15  03 56 40.840   +12 54 37.17  1.2592 1.5204  83.3 21.4 4423 167
2020 08 15 16  03 56 47.620   +12 55 00.90  1.2589 1.5203  83.3 21.4 4453 167
2020 08 15 17  03 56 54.399   +12 55 24.61  1.2586 1.5203  83.3 21.4 4482 167
2020 08 15 18  03 57 01.178   +12 55 48.32  1.2583 1.5202  83.3 21.4 4512 167
2020 08 15 19  03 57 07.957   +12 56 12.01  1.2580 1.5201  83.3 21.4 4542 167
2020 08 15 20  03 57 14.736   +12 56 35.69  1.2577 1.5201  83.3 21.4 4573 167
2020 08 15 21  03 57 21.515   +12 56 59.36  1.2574 1.5200  83.3 21.4 4603 167
2020 08 15 22  03 57 28.293   +12 57 23.02  1.2571 1.5199  83.3 21.4 4633 167
2020 08 15 23  03 57 35.072   +12 57 46.66  1.2568 1.5198  83.3 21.4 4664 167
2020 08 16 00  03 57 41.850   +12 58 10.29  1.2565 1.5198  83.4 21.4 4695 167
2020 08 16 01  03 57 48.628   +12 58 33.91  1.2562 1.5197  83.4 21.4 4726 167
2020 08 16 02  03 57 55.406   +12 58 57.52  1.2558 1.5196  83.4 21.4 4757 167
2020 08 16 03  03 58 02.183   +12 59 21.11  1.2555 1.5196  83.4 21.4 4788 167
2020 08 16 04  03 58 08.961   +12 59 44.70  1.2552 1.5195  83.4 21.4 4819 167
2020 08 16 05  03 58 15.738   +13 00 08.27  1.2549 1.5194  83.4 21.4 4850 167
2020 08 16 06  03 58 22.515   +13 00 31.83  1.2546 1.5194  83.4 21.4 4882 167
2020 08 16 07  03 58 29.292   +13 00 55.37  1.2543 1.5193  83.4 21.4 4914 167
2020 08 16 08  03 58 36.068   +13 01 18.91  1.2540 1.5192  83.4 21.4 4945 167
2020 08 16 09  03 58 42.845   +13 01 42.43  1.2537 1.5192  83.5 21.4 4977 167
2020 08 16 10  03 58 49.621   +13 02 05.94  1.2534 1.5191  83.5 21.4 5009 167
2020 08 16 11  03 58 56.397   +13 02 29.44  1.2531 1.5190  83.5 21.4 5042 167
2020 08 16 12  03 59 03.172   +13 02 52.93  1.2528 1.5190  83.5 21.4 5074 167
2020 08 16 13  03 59 09.948   +13 03 16.40  1.2525 1.5189  83.5 21.4 5106 167
2020 08 16 14  03 59 16.723   +13 03 39.86  1.2522 1.5188  83.5 21.4 5139 167
2020 08 16 15  03 59 23.499   +13 04 03.31  1.2519 1.5188  83.5 21.4 5172 167
2020 08 16 16  03 59 30.273   +13 04 26.75  1.2516 1.5187  83.5 21.4 5205 167
2020 08 16 17  03 59 37.048   +13 04 50.18  1.2512 1.5186  83.6 21.4 5238 167
2020 08 16 18  03 59 43.823   +13 05 13.59  1.2509 1.5186  83.6 21.4 5271 167
2020 08 16 19  03 59 50.597   +13 05 36.99  1.2506 1.5185  83.6 21.4 5304 167
2020 08 16 20  03 59 57.371   +13 06 00.38  1.2503 1.5184  83.6 21.4 5338 167
2020 08 16 21  04 00 04.145   +13 06 23.76  1.2500 1.5184  83.6 21.4 5371 167
2020 08 16 22  04 00 10.919   +13 06 47.12  1.2497 1.5183  83.6 21.4 5405 167
2020 08 16 23  04 00 17.692   +13 07 10.47  1.2494 1.5182  83.6 21.4 5439 167
2020 08 17 00  04 00 24.465   +13 07 33.82  1.2491 1.5182  83.6 21.4 5473 167
2020 08 17 01  04 00 31.238   +13 07 57.14  1.2488 1.5181  83.6 21.4 5507 167
2020 08 17 02  04 00 38.011   +13 08 20.46  1.2485 1.5180  83.7 21.4 5542 167
2020 08 17 03  04 00 44.783   +13 08 43.76  1.2482 1.5180  83.7 21.4 5576 167
2020 08 17 04  04 00 51.556   +13 09 07.06  1.2479 1.5179  83.7 21.4 5611 167
2020 08 17 05  04 00 58.328   +13 09 30.34  1.2476 1.5178  83.7 21.4 5645 167
2020 08 17 06  04 01 05.099   +13 09 53.60  1.2473 1.5178  83.7 21.4 5680 167
2020 08 17 07  04 01 11.871   +13 10 16.86  1.2470 1.5177  83.7 21.4 5715 167
2020 08 17 08  04 01 18.642   +13 10 40.10  1.2467 1.5176  83.7 21.4 5751 167